Flag for U.S.A. Weather past 2 weeks in Greenville, South Carolina, U.S.A.

Now
37 °F

Passing clouds.


Feels Like: 28 °F
Forecast: 30 / 42 °F
Wind: 15 mph from Northeast

Location: Greenville Downtown Airport

Current Time: Feb 28, 2015 at 11:33:30 AM

Latest Report: Feb 28, 2015 at 10:53 AM


Visibility: 10 mi

Pressure: 30.69 "Hg

Humidity: 36%

Dew point: 12 °F

Location of GreenvilleLocation

Historic Weather in Greenville — Graph

°F

Greenville temperature yesterday

Maximum temperature yesterday: 52 °F (at 4:53 PM)
Minimum temperature yesterday: 33 °F (at 6:53 AM)
Average temperature yesterday: 42 °F

Past Weeks' High & Low Weather Summary

 TemperatureHumidityPressure
High59 °F (Feb 14, 3:53 PM)93% (Feb 22, 2:53 AM)30.71 "Hg (Feb 22, 2:53 AM)
Low11 °F (Feb 20, 5:53 AM)14% (Feb 15, 1:53 PM)29.70 "Hg (Feb 26, 3:53 AM)
Average34 °F57%30.13 "Hg
* Reported Feb 13 9:53 AM — Feb 28 9:53 AM, Greenville, Weather by CustomWeather, © 2015

Note: Actual official high and low records may vary slightly from our data, if they occured in-between our weather recording intervals... More about our weather records

Advertising

Greenville weather history for previous 24 hours

 ConditionsComfort  
Time TempWeatherWind HumidityBarometerVisibility
9:53 AM
Sat, Feb 28
35 °FSunny.16 mph36%30.71 "Hg10 mi
8:53 AM33 °FSunny.14 mph41%30.69 "Hg10 mi
7:53 AM32 °FScattered clouds.9 mph47%30.66 "Hg10 mi
6:53 AM32 °FPassing clouds.8 mph47%30.64 "Hg10 mi
5:53 AM33 °FOvercast.14 mph48%30.61 "Hg10 mi
4:53 AM33 °FOvercast.14 mph49%30.58 "Hg10 mi
3:53 AM34 °FOvercast.13 mph50%30.55 "Hg10 mi
2:53 AM34 °FPassing clouds.15 mph52%30.54 "Hg10 mi
1:53 AM35 °FClear.14 mph50%30.52 "Hg10 mi
12:53 AM36 °FClear.14 mph50%30.52 "Hg10 mi
11:53 PM
Fri, Feb 27
37 °FClear.12 mph48%30.49 "Hg10 mi
10:53 PM38 °FClear.13 mph45%30.48 "Hg10 mi
9:53 PM38 °FClear.9 mph46%30.45 "Hg10 mi
8:53 PM39 °FClear.9 mph50%30.43 "Hg10 mi
7:53 PM42 °FClear.8 mph53%30.40 "Hg10 mi
6:53 PM49 °FClear.3 mph39%30.37 "Hg10 mi
5:53 PM51 °FSunny.No wind33%30.35 "Hg10 mi
4:53 PM52 °FSunny.No wind34%30.34 "Hg10 mi
3:53 PM51 °FSunny.No wind38%30.33 "Hg10 mi
2:53 PM50 °FSunny.5 mph38%30.32 "Hg10 mi
1:53 PM50 °FPassing clouds.5 mph41%30.33 "Hg10 mi
12:53 PM48 °FPartly sunny.5 mph46%30.35 "Hg10 mi
11:53 AM46 °FPartly sunny.7 mph50%30.38 "Hg10 mi
Weather by CustomWeather, © 2015

See weather overviewHow to use our weather pages